SL-12 R/B(2), 21019

Orbit data source: Space-Track

SL-12 R/B(2), 21019 is space debris in GEO originally from a launch on Thu, 20 Dec 1990 UTC launched from the Tyuratam Missile And Space Complex (TTMTR). Debris objects in space refer to the collection of defunct objects orbiting the Earth. Examples of debris include non-operational satellites, rocket bodies, and fragments generated from explosions, collisions, or faulty payload assembly.

Loading next visibility...
Identifier
21019, 1990-112D
Orbit
GEO
Country
Flag of CISCIS
Related business
Manufacturer
NPO Energiya
Mission
Spacecraft
Bus & Motor
BLOK DM, Unknown motor
Mass
2,440 kg wet, 2,440 kg dry
Launch date (UTC)
1990-12-20 (35 years ago)
Launch vehicle
Unknown
Launch site
Tyuratam Missile And Space Complex (TTMTR)
Object type
Payload
Rocket body
Debris
Shape & HBR
Cyl, 3.1 m
Radar Cross Section
23.597 m², Large (>1 m²)

Expand to show TLE details & history
Last TLE update: 7 hours ago

TLE from 7 hours ago
0 SL-12 R/B(2)
1 21019U 90112D   26071.19641120 -.00000128  00000-0  00000-0 0  9998
2 21019  12.9821 338.7583 0024569 182.2472 344.4700  1.00013000118969
Epoch: 2026-03-12T04:42Z
TLE epoch observation values (Epoch: 2026-03-12T04:42:49.927Z)
Latitude
2.97678°
Longitude
-94.80806°
Altitude
35,758.134 km
Speed
3.079 km/s
True Right ascension
09h 42m 59s
True Declination
2° 58' 26"
Sunlit
Object was in daylight at epoch
Visualization orbit readout
Latitude
Unknown
Longitude
Unknown
Altitude
Unknown
Speed
Unknown
Apparent Right ascension
Unknown
Apparent Declination
Unknown
Sunlit
N/A
Visualization observer readout
Local Sidereal Time
16:13:45
Azimuth
Unknown
Elevation
Unknown
Doppler factor
Unknown
Orbital elements
Apogee altitude
35,964.063 km
Perigee altitude
35,756.512 km
Semi-major axis
42,238.425 km
Eccentricity
0.00246
Inclination
12.9821°
RAAN
338.7583°
Arg. of periapsis
182.2472°
True anomaly
344.3944°
Mean anomaly
344.47°
Eccentric anomaly
344.43222°
Mean motion
0.25002 °/min
Orbital period
1,439.86 mins
BSTAR
0
Loading maneuver chart data...
Computing Atmospheric mass density...
Loading historical data...
Loading historical data...
Loading historical data...
Loading historical data...
Loading historical data...
Loading historical data...
Loading historical data...

Documentation

Showing up to 5 results
|